Regional Weather Roundup
Issued by NWS

Home | Current Version | Previous Version | Graphics & Text | Print | Product List | Glossary Off
Versions: 1 2 3 4 5 6 7 8 9 10 11 12 13 14 15 16 17 18 19 20 21 22 23 24 25 26 27 28 29 30 31 32 33 34 35 36 37 38 39 40 41 42 43 44 45 46 47 48 49 50

000
ASUS43 KDTX 202310
RWRMI
MICHIGAN HOURLY REGIONAL WEATHER ROUNDUP
NATIONAL WEATHER SERVICE DETROIT/PONTIAC MI
700 PM EDT SUN APR 20 2014

NOTE: "FAIR" INDICATES FEW OR NO CLOUDS BELOW 12,000 FEET WITH NO
SIGNIFICANT WEATHER AND/OR OBSTRUCTION TO VISIBILITY.

MIZ047>049-052>055-059>063-066>070-074>076-081>083-210000-
SOUTHEAST LOWER MICHIGAN

CITY           SKY/WX    TMP DP  RH WIND       PRES   REMARKS
ADRIAN         SUNNY     71  29  21 SW8       30.14F
ALMA           SUNNY     70  28  20 S9        30.11F
ANN ARBOR      SUNNY     71  26  18 SW8       30.13F
BAD AXE        SUNNY     70  29  21 SW7       30.12F
CARO           SUNNY     73  28  18 S8        30.11F
DETROIT CITY   SUNNY     71  29  21 S13       30.14F
DETROIT        PTSUNNY   69  33  26 SE10      30.15F
FLINT          SUNNY     73  26  17 S6        30.12F
GROSSE ILE     SUNNY     63  34  34 S6        30.14F
HILLSDALE      MOSUNNY   71  26  19 S5        30.14F
HOWELL         SUNNY     69  19  14 SW12      30.13S

CITY           SKY/WX    TMP DP  RH WIND       PRES   REMARKS
JACKSON        SUNNY     71  23  16 S9        30.13F
LAMBERTVILLE   SUNNY     64  34  32 E7        30.15F
LANSING        MOSUNNY   71  26  18 SW10      30.13S
LAPEER         FAIR      70  24  17 S8        30.13F
MASON          MOSUNNY   71  28  20 SW8       30.12F
MONROE         MOSUNNY   61  34  36 E6        30.14F
MT. CLEMENS    MOSUNNY   65  37  35 SE9       30.12F
PONTIAC        PTSUNNY   70  24  17 S8        30.13F
PORT HOPE        N/A     54  38  54 NW3       30.11F
PORT HURON     SUNNY     66  36  32 S13       30.14F
TRI CITIES     SUNNY     72  34  24 W8        30.11F
TROY           SUNNY     70  31  23 S10       30.14F
SAGINAW HB     SUNNY     72  30  21 SW7       30.10F
YPSILANTI      SUNNY     73  32  22 S12       30.13F
$$
MIZ043>046-050>051-056>058-064>065-071>073-077>080-210000-
SOUTHWEST LOWER MICHIGAN

CITY           SKY/WX    TMP DP  RH WIND       PRES   REMARKS
BATTLE CREEK   MOSUNNY   71  29  21 SW7       30.13F
BENTON HARBOR  MOSUNNY   71  37  28 W6        30.10F
BIG RAPIDS     CLOUDY    69  37  31 W9        30.09S
COLDWATER      MOSUNNY   70  26  19 SW8       30.13S
FREMONT        FAIR      70  33  26 SW9       30.10S
HOLLAND        SUNNY     72  37  28 SW8       30.11F
GRAND RAPIDS   MOSUNNY   73  33  23 SW10      30.11F
IONIA          FAIR      72  27  19 S9        30.10F
KALAMAZOO      MOSUNNY   70  27  20 S9        30.12F
LUDINGTON      CLOUDY    63  35  35 SW12G20   30.09F
MARSHALL       MOSUNNY   71  29  20 S9        30.12S
MOUNT PLEASANT SUNNY     70  32  24 SW7       30.10S
MUSKEGON       MOSUNNY   68  33  27 S12       30.11S
SOUTH HAVEN    MOSUNNY   72  32  23 W5        30.10F
$$
MIZ016>042-210000-
NORTHERN LOWER MICHIGAN

CITY           SKY/WX    TMP DP  RH WIND       PRES   REMARKS
ALPENA         CLOUDY    45  36  70 SE3       30.09F
BEAVER ISLAND  CLOUDY    42  32  70 SW10G17   30.07F
BELLAIRE       CLOUDY    63  38  39 W3        30.05F
CADILLAC       CLOUDY    65  40  39 SW9       30.08F
CHARLEVOIX     CLOUDY    56  38  49 SW3       30.09F
FRANKFORT      CLOUDY    56  36  45 SW12G18   30.08S
GAYLORD        CLOUDY    59  41  51 SW5       30.07F
GRAYLING       CLOUDY    68  35  30 CALM      30.08F
HARBOR SPRINGS CLOUDY    44  37  77 CALM      30.07S
HOUGHTON LAKE  PTSUNNY   66  35  31 SW7       30.08F
MANISTEE       CLOUDY    66  36  32 SW8       30.09S
OSCODA         PTSUNNY   63  27  25 S6        30.09F
PELLSTON       CLOUDY    53  44  71 NW6       30.08S
ROGERS CITY    CLOUDY    55  45  69 S5        30.08R
TRAVERSE CITY  CLOUDY    64  37  36 W5        30.05F
$$
MIZ007>008-015-210000-
EASTERN UPPER MICHIGAN

CITY           SKY/WX    TMP DP  RH WIND       PRES   REMARKS
KINROSS        CLOUDY    39  39 100 SE6       30.07F VSB 1/2 WCI  35
MACKINAC ISLAN CLOUDY    38  36  94 E6        30.09S WCI  33
NEWBERRY       CLOUDY    38  36  92 SW10      30.04S FOG     WCI  31
S. S. MARIE    LGT RAIN  38  36  92 E6        30.08S FOG     WCI  33
MUNISING         N/A     54  41  61 S7        30.01S
$$
MIZ004>006-011>014-085-210000-
CENTRAL UPPER MICHIGAN

CITY           SKY/WX    TMP DP  RH WIND       PRES   REMARKS
MANISTIQUE     CLOUDY    37  34  89 SW5       30.05S WCI  33
ESCANABA       CLOUDY    37  34  87 SE3       30.03F
MENOMINEE      CLOUDY    54  48  82 SW8       30.04S
$$
MIZ001>003-009>011-084-210000-
WESTERN UPPER MICHIGAN

CITY           SKY/WX    TMP DP  RH WIND       PRES   REMARKS
IRON MOUNTAIN  CLOUDY    59  50  72 S7        29.99S
HOUGHTON       SUNNY     49  33  54 NW7       29.99S
COPPER HARBOR    N/A     40  33  76 CALM      30.00S
IRONWOOD       SUNNY     61  32  33 N7        29.97S
$$

ABBREVIATIONS USED IN REMARKS
   TC - TEMPERATURE IN CELSIUS
  WCI - WIND CHILL INDEX
   HX - HEAT INDEX
  VSB - VISIBILITY




USA.gov is the U.S. government's official web portal to all federal, state and local government web resources and services.